| time (UTC) | temp C | wind direction | speed KPH | gust KPH | rain 1hr cm | rain 24hr cm | rain mn cm | humidity % | barometer mb |
| 20260506124048 | 12 | 122 | 11.3 | 14.5 | 0.00 | 0.00 | 0.00 | 87 | 1016.9 |
| 20260506123048 | 12 | 120 | 6.4 | 14.5 | 0.00 | 0.00 | 0.00 | 87 | 1016.9 |
| 20260506121047 | 12 | 120 | 8.0 | 17.7 | 0.00 | 0.00 | 0.00 | 85 | 1016.9 |
| 20260506120048 | 12 | 96 | 12.9 | 16.1 | 0.00 | 0.00 | 0.00 | 85 | 1016.9 |
| 20260506115047 | 13 | 112 | 9.7 | 14.5 | 0.00 | 0.00 | 0.00 | 85 | 1016.8 |
| 20260506113048 | 13 | 110 | 3.2 | 14.5 | 0.00 | 0.00 | 0.00 | 85 | 1016.7 |
| 20260506112048 | 13 | 106 | 6.4 | 14.5 | 0.00 | 0.00 | 0.00 | 86 | 1016.6 |
| 20260506111048 | 13 | 99 | 6.4 | 14.5 | 0.00 | 0.00 | 0.00 | 85 | 1016.3 |
| 20260506110047 | 13 | 142 | 6.4 | 9.7 | 0.00 | 0.00 | 0.00 | 85 | 1016.3 |
| 20260506105047 | 13 | 110 | 3.2 | 12.9 | 0.00 | 0.00 | 0.00 | 86 | 1016.2 |
| 20260506104047 | 12 | 87 | 1.6 | 12.9 | 0.00 | 0.00 | 0.00 | 86 | 1016.2 |
| 20260506103047 | 12 | 113 | 3.2 | 12.9 | 0.00 | 0.00 | 0.00 | 86 | 1016.1 |
| 20260506102049 | 12 | 115 | 11.3 | 11.3 | 0.00 | 0.00 | 0.00 | 86 | 1016.1 |
| 20260506101047 | 12 | 105 | 1.6 | 14.5 | 0.00 | 0.00 | 0.00 | 86 | 1016.0 |
| 20260506100047 | 12 | 107 | 0.0 | 11.3 | 0.00 | 0.00 | 0.00 | 86 | 1015.8 |
| 20260506095047 | 12 | 71 | 3.2 | 12.9 | 0.00 | 0.00 | 0.00 | 86 | 1015.7 |
| 20260506094047 | 13 | 98 | 0.0 | 12.9 | 0.00 | 0.00 | 0.00 | 85 | 1015.6 |
| 20260506093047 | 13 | 107 | 1.6 | 9.7 | 0.00 | 0.00 | 0.00 | 85 | 1015.7 |
| 20260506091047 | 13 | 102 | 4.8 | 14.5 | 0.00 | 0.00 | 0.00 | 85 | 1015.4 |
| 20260506090046 | 13 | 113 | 6.4 | 14.5 | 0.00 | 0.00 | 0.00 | 85 | 1015.4 |
| 20260506085048 | 13 | 102 | 6.4 | 14.5 | 0.00 | 0.00 | 0.00 | 84 | 1015.4 |
| 20260506083047 | 13 | 100 | 4.8 | 12.9 | 0.00 | 0.00 | 0.00 | 84 | 1015.2 |
| 20260506082046 | 13 | 88 | 3.2 | 17.7 | 0.00 | 0.00 | 0.00 | 84 | 1015.3 |
| 20260506081047 | 13 | 94 | 6.4 | 14.5 | 0.00 | 0.00 | 0.00 | 84 | 1015.2 |
| 20260506073046 | 13 | 106 | 4.8 | 9.7 | 0.00 | 0.00 | 0.00 | 85 | 1014.8 |
| 20260506071046 | 13 | 125 | 0.0 | 6.4 | 0.00 | 0.00 | 0.00 | 87 | 1014.7 |
| 20260506062047 | 13 | 97 | 0.0 | 0.0 | 0.00 | 0.00 | 0.00 | 85 | 1014.4 |
| 20260506061046 | 13 | 97 | 0.0 | 3.2 | 0.00 | 0.00 | 0.00 | 85 | 1014.3 |
| 20260506051046 | 13 | 93 | 0.0 | 0.0 | 0.00 | 0.00 | 0.00 | 83 | 1013.9 |
| 20260506045045 | 13 | 135 | 0.0 | 0.0 | 0.00 | 0.00 | 0.00 | 82 | 1013.9 |
| 20260506044046 | 13 | 173 | 0.0 | 0.0 | 0.00 | 0.00 | 0.00 | 82 | 1013.8 |
| 20260506043045 | 14 | 173 | 0.0 | 0.0 | 0.00 | 0.00 | 0.00 | 81 | 1013.8 |
| 20260506042044 | 14 | 173 | 0.0 | 0.0 | 0.00 | 0.00 | 0.00 | 81 | 1013.7 |
| 20260506041045 | 14 | 173 | 0.0 | 0.0 | 0.00 | 0.00 | 0.00 | 80 | 1013.6 |
| 20260506032044 | 16 | 173 | 0.0 | 1.6 | 0.00 | 0.00 | 0.00 | 75 | 1013.1 |
| 20260506031044 | 16 | 173 | 0.0 | 4.8 | 0.00 | 0.00 | 0.00 | 72 | 1013.1 |
| 20260506025045 | 16 | 169 | 1.6 | 8.0 | 0.00 | 0.00 | 0.00 | 71 | 1012.8 |
| 20260506024045 | 17 | 156 | 1.6 | 6.4 | 0.00 | 0.00 | 0.00 | 70 | 1013.0 |
| 20260506023045 | 17 | 137 | 1.6 | 9.7 | 0.00 | 0.00 | 0.00 | 69 | 1012.9 |
| 20260506021044 | 17 | 201 | 0.0 | 11.3 | 0.00 | 0.00 | 0.00 | 67 | 1013.0 |
| 20260506020044 | 17 | 194 | 6.4 | 11.3 | 0.00 | 0.00 | 0.00 | 68 | 1012.9 |
| 20260506015044 | 17 | 122 | 8.0 | 12.9 | 0.00 | 0.00 | 0.00 | 67 | 1013.0 |
| 20260506014045 | 18 | 162 | 8.0 | 16.1 | 0.00 | 0.00 | 0.00 | 67 | 1012.9 |
| 20260506013045 | 18 | 196 | 3.2 | 12.9 | 0.00 | 0.00 | 0.00 | 66 | 1012.9 |
| 20260506010044 | 18 | 130 | 11.3 | 12.9 | 0.00 | 0.00 | 0.00 | 66 | 1013.1 |
| 20260506004044 | 18 | 181 | 11.3 | 14.5 | 0.00 | 0.00 | 0.00 | 66 | 1013.0 |
| 20260506003043 | 18 | 155 | 1.6 | 12.9 | 0.00 | 0.00 | 0.00 | 66 | 1013.0 |
| 20260506002045 | 19 | 204 | 11.3 | 14.5 | 0.00 | 0.00 | 0.00 | 64 | 1013.0 |
| 20260506001044 | 19 | 161 | 3.2 | 14.5 | 0.00 | 0.00 | 0.00 | 64 | 1013.0 |
| 20260505234044 | 20 | 192 | 3.2 | 14.5 | 0.00 | 0.00 | 0.00 | 63 | 1013.4 |
| 20260505233044 | 20 | 184 | 8.0 | 14.5 | 0.00 | 0.00 | 0.00 | 64 | 1013.3 |
| 20260505232043 | 20 | 170 | 9.7 | 17.7 | 0.00 | 0.00 | 0.00 | 64 | 1013.5 |
| 20260505231043 | 20 | 182 | 4.8 | 14.5 | 0.00 | 0.00 | 0.00 | 62 | 1013.6 |
| 20260505230043 | 20 | 129 | 6.4 | 16.1 | 0.00 | 0.00 | 0.00 | 62 | 1013.8 |
| 20260505225044 | 20 | 255 | 6.4 | 14.5 | 0.00 | 0.00 | 0.00 | 63 | 1013.8 |
| 20260505224044 | 20 | 143 | 4.8 | 12.9 | 0.00 | 0.00 | 0.00 | 62 | 1013.9 |
| 20260505223043 | 20 | 120 | 4.8 | 16.1 | 0.00 | 0.00 | 0.00 | 64 | 1014.0 |
| 20260505222043 | 20 | 120 | 6.4 | 16.1 | 0.00 | 0.00 | 0.00 | 62 | 1013.9 |
| 20260505221043 | 20 | 209 | 1.6 | 14.5 | 0.00 | 0.00 | 0.00 | 64 | 1014.0 |
| 20260505220043 | 20 | 205 | 11.3 | 11.3 | 0.00 | 0.00 | 0.00 | 64 | 1014.1 |
| 20260505215044 | 19 | 144 | 8.0 | 14.5 | 0.00 | 0.00 | 0.00 | 66 | 1014.1 |
| 20260505214043 | 20 | 243 | 6.4 | 11.3 | 0.00 | 0.00 | 0.00 | 64 | 1014.2 |
| 20260505213043 | 20 | 202 | 4.8 | 14.5 | 0.00 | 0.00 | 0.00 | 64 | 1014.2 |
| 20260505212044 | 19 | 192 | 4.8 | 12.9 | 0.00 | 0.00 | 0.00 | 67 | 1014.2 |
| 20260505211043 | 19 | 211 | 11.3 | 16.1 | 0.00 | 0.00 | 0.00 | 66 | 1014.2 |
| 20260505210043 | 19 | 159 | 3.2 | 11.3 | 0.00 | 0.00 | 0.00 | 66 | 1014.3 |
| 20260505205044 | 20 | 238 | 3.2 | 16.1 | 0.00 | 0.00 | 0.00 | 64 | 1014.5 |
| 20260505204043 | 18 | 221 | 6.4 | 14.5 | 0.00 | 0.00 | 0.00 | 68 | 1014.5 |
| 20260505203043 | 18 | 233 | 11.3 | 14.5 | 0.00 | 0.00 | 0.00 | 67 | 1014.5 |
| 20260505202042 | 18 | 130 | 1.6 | 11.3 | 0.00 | 0.00 | 0.00 | 68 | 1014.6 |
| 20260505201042 | 18 | 157 | 9.7 | 12.9 | 0.00 | 0.00 | 0.00 | 69 | 1014.6 |
| 20260505200043 | 18 | 150 | 1.6 | 14.5 | 0.00 | 0.00 | 0.00 | 67 | 1014.6 |
| 20260505194043 | 17 | 170 | 6.4 | 14.5 | 0.00 | 0.00 | 0.00 | 73 | 1014.5 |
| 20260505193044 | 17 | 202 | 6.4 | 17.7 | 0.00 | 0.00 | 0.00 | 73 | 1014.6 |
| 20260505192043 | 17 | 107 | 4.8 | 12.9 | 0.00 | 0.00 | 0.00 | 74 | 1014.5 |
| 20260505190043 | 16 | 196 | 8.0 | 14.5 | 0.00 | 0.00 | 0.00 | 77 | 1014.6 |
| 20260505185043 | 16 | 192 | 8.0 | 11.3 | 0.00 | 0.00 | 0.00 | 78 | 1014.6 |
| 20260505184043 | 15 | 179 | 6.4 | 14.5 | 0.00 | 0.00 | 0.00 | 80 | 1014.7 |
| 20260505183041 | 15 | 188 | 3.2 | 16.1 | 0.00 | 0.00 | 0.00 | 80 | 1014.6 |
| 20260505182042 | 15 | 189 | 4.8 | 14.5 | 0.00 | 0.00 | 0.00 | 79 | 1014.6 |
| 20260505181042 | 15 | 209 | 1.6 | 16.1 | 0.00 | 0.00 | 0.00 | 79 | 1014.4 |
| 20260505180041 | 15 | 202 | 6.4 | 19.3 | 0.00 | 0.00 | 0.00 | 79 | 1014.4 |
| 20260505175041 | 15 | 165 | 3.2 | 16.1 | 0.00 | 0.00 | 0.00 | 80 | 1014.4 |
| 20260505174041 | 15 | 240 | 6.4 | 14.5 | 0.00 | 0.00 | 0.00 | 79 | 1014.4 |
| 20260505173041 | 15 | 237 | 3.2 | 11.3 | 0.00 | 0.00 | 0.00 | 79 | 1014.4 |
| 20260505172041 | 16 | 178 | 6.4 | 12.9 | 0.00 | 0.00 | 0.00 | 78 | 1014.5 |
| 20260505171041 | 15 | 190 | 6.4 | 17.7 | 0.00 | 0.00 | 0.00 | 78 | 1014.3 |
| 20260505170041 | 16 | 188 | 3.2 | 16.1 | 0.00 | 0.00 | 0.00 | 77 | 1014.4 |
| 20260505164041 | 16 | 105 | 9.7 | 11.3 | 0.00 | 0.00 | 0.00 | 76 | 1014.4 |
| 20260505163041 | 15 | 154 | 9.7 | 9.7 | 0.00 | 0.00 | 0.00 | 78 | 1014.3 |
| 20260505162041 | 15 | 196 | 0.0 | 9.7 | 0.00 | 0.00 | 0.00 | 80 | 1014.4 |
| 20260505161041 | 14 | 165 | 0.0 | 9.7 | 0.00 | 0.00 | 0.00 | 80 | 1014.2 |
| 20260505153041 | 14 | 92 | 11.3 | 14.5 | 0.00 | 0.00 | 0.00 | 81 | 1014.2 |
| 20260505152042 | 14 | 113 | 3.2 | 11.3 | 0.00 | 0.00 | 0.00 | 81 | 1014.0 |
| 20260505125040 | 13 | 108 | 1.6 | 11.3 | 0.00 | 0.00 | 0.00 | 79 | 1012.6 |